Home   Weather   Egersund   Past weeks

Flag for Norway Past Weather in Egersund, Norway — Yesterday and Last 2 Weeks

Now
39 °F

Chilly.


Feels Like: 39 °F
Forecast: 42 / 47 °F
Wind: 1 mph from North

Location: Ualand-Bjuland

Current Time: Dec 4, 2016 at 5:32:59 pm

Latest Report: Dec 4, 2016 at 11:00 am


Visibility: N/A

Pressure: 30.30 "Hg

Humidity: 100%

Dew Point: 39 °F

Location of EgersundLocation

Past Weather in Egersund — Graph

°F

Egersund Temperature Yesterday

Maximum temperature yesterday: 36 °F (at 5:00 pm)
Minimum temperature yesterday: 29 °F (at 11:00 am)
Average temperature yesterday: 35 °F

High & Low Weather Summary for the Past Weeks

 TemperatureHumidityPressure
High51 °F (Nov 26, 5:00 am)100% (Nov 19, 11:00 pm)30.57 "Hg (Nov 19, 11:00 pm)
Low22 °F (Nov 28, 3:00 am)53% (Dec 2, 12:00 am)29.23 "Hg (Nov 20, 9:00 pm)
Average38 °F88%29.98 "Hg
* Reported Nov 19 11:00 am — Dec 4 11:00 am, Egersund, Weather by CustomWeather, © 2016

Note: Actual official high and low records may vary slightly from our data, if they occured in-between our weather recording intervals... More about our weather records

Advertising

Egersund Weather History for the Previous 24 Hours

Scroll right to see more
 ConditionsComfort  
Time TempWeatherWind HumidityBarometerVisibility
11:00 am
Sun, Dec 4
39 °FChilly.1 mph100%30.30 "HgN/A
10:00 am36 °FChilly.N/A99%30.30 "HgN/A
9:00 am36 °FChilly.2 mph99%30.29 "HgN/A
8:00 am37 °FChilly.1 mph99%30.29 "HgN/A
7:00 am37 °FLight rain. Low clouds.1 mph99%30.28 "Hg6 mi
6:00 am35 °FChilly.1 mph99%30.28 "HgN/A
5:00 am35 °FChilly.1 mph99%30.28 "HgN/A
4:00 am35 °FChilly.1 mph99%30.28 "HgN/A
3:00 am36 °FChilly.1 mph99%30.28 "HgN/A
2:00 am35 °FChilly.1 mph99%30.28 "HgN/A
1:00 am36 °FChilly.1 mph99%30.28 "HgN/A
12:00 am36 °FChilly.1 mph99%30.27 "HgN/A
11:00 pm
Sat, Dec 3
36 °FChilly.No wind99%30.27 "HgN/A
10:00 pm36 °FChilly.1 mph98%30.27 "HgN/A
9:00 pm36 °FChilly.No wind98%30.26 "HgN/A
7:00 pm35 °FLight rain. Low clouds.1 mph98%30.25 "Hg6 mi
6:00 pm36 °FChilly.1 mph97%30.25 "HgN/A
5:00 pm36 °FChilly.1 mph96%30.24 "HgN/A
Weather by CustomWeather, © 2016

See weather overviewHow to use our weather pages